Tracking 29528 objects as of 12-Sep-2024
HD Live streaming from Space Station
objects crossing your sky now

STARLINK-6294

Track STARLINK-6294 now!
10-day predictions
STARLINK-6294 is classified as:


NORAD ID: 57225
Int'l Code: 2023-094H
Perigee: 565.4 km
Apogee: 567.0 km
Inclination: 43.0 °
Period: 95.8 minutes
Semi major axis: 6937 km
RCS: Unknown
Launch date: July 7, 2023
Source: United States (US)
Launch site: AIR FORCE WESTERN TEST RANGE (AFWTR)
Your satellite tracking list
Your tracking list is empty




NASA's NSSDC Master Catalog

Two Line Element Set (TLE):
1 57225U 23094H   24255.88307300 -.00000479  00000-0 -20420-4 0  9990
2 57225  43.0028 105.5362 0001199 267.8550  92.2155 15.02537859 65319
Source of the keplerian elements: AFSPC